Location: Luz Observatory
(34.5000°N, 117.2833°W)
Time: 01:43:33
(UTC-07:00)

HST - Visible Passes

Search period start: 25 October 2014 00:00
Search period end: 03 November 2014 23:00
Orbit: 546 x 550 km, 28.5° (Epoch: 24 October)

Date Brightness Start Highest point End Pass type
(mag) Time Alt. Az. Time Alt. Az. Time Alt. Az.
25 Oct 2.4 19:22:08 10° SW 19:25:22 22° SSE 19:26:16 20° SE visible
26 Oct 2.3 19:14:32 10° SW 19:18:00 25° SSE 19:19:27 21° SE visible
27 Oct 2.1 19:07:01 10° SW 19:10:39 29° S 19:12:36 20° SE visible
27 Oct 3.9 20:47:51 10° WSW 20:48:08 12° WSW 20:48:08 12° WSW visible
28 Oct 2.0 18:59:33 10° SW 19:03:18 32° S 19:05:43 18° ESE visible
28 Oct 3.7 20:40:33 10° WSW 20:41:16 14° WSW 20:41:16 14° WSW visible
29 Oct 1.9 18:52:08 10° WSW 18:55:56 34° S 18:58:50 15° ESE visible
29 Oct 3.5 20:33:16 10° WSW 20:34:23 17° WSW 20:34:23 17° WSW visible
30 Oct 1.9 18:44:44 10° WSW 18:48:35 36° S 18:51:58 13° ESE visible
30 Oct 3.2 20:26:00 10° WSW 20:27:31 19° SW 20:27:31 19° SW visible
31 Oct 2.0 18:37:22 10° WSW 18:41:13 36° S 18:45:04 10° ESE visible
31 Oct 3.1 20:18:47 10° WSW 20:20:40 20° SW 20:20:40 20° SW visible
01 Nov 2.0 18:30:01 10° WSW 18:33:51 35° S 18:37:41 10° ESE visible
01 Nov 3.0 20:11:37 10° WSW 20:13:51 20° SW 20:13:51 20° SW visible
02 Nov 2.2 17:22:41 10° WSW 17:26:28 33° S 17:30:15 10° ESE visible
02 Nov 3.0 19:04:32 10° WSW 19:07:07 18° SSW 19:07:07 18° SSW visible
03 Nov 2.4 17:15:23 10° WSW 17:19:04 30° S 17:22:46 10° SE visible
03 Nov 3.2 18:57:37 10° SW 18:59:58 15° SSW 19:00:27 14° SSW visible
